Regional Weather Roundup
Issued by NWS

Home | Current Version | Previous Version | Text Only | Print | Product List | Glossary Off
Versions: 1 2 3 4 5 6 7 8 9 10 11 12 13 14 15 16 17 18 19 20 21 22 23 24 25 26 27 28 29 30 31 32 33 34 35 36 37 38 39 40 41 42 43 44 45 46 47 48 49 50

788
ASUS43 KDTX 271610
RWRMI
MICHIGAN HOURLY REGIONAL WEATHER ROUNDUP
NATIONAL WEATHER SERVICE DETROIT/PONTIAC MI
1200 PM EDT MON MAR 27 2017

NOTE: "FAIR" INDICATES FEW OR NO CLOUDS BELOW 12,000 FEET WITH NO
SIGNIFICANT WEATHER AND/OR OBSTRUCTION TO VISIBILITY.

MIZ047>049-052>055-059>063-066>070-074>076-081>083-271700-
SOUTHEAST LOWER MICHIGAN

CITY           SKY/WX    TMP DP  RH WIND       PRES   REMARKS
ADRIAN         CLOUDY    54  49  83 W12       29.97R
ALMA           CLOUDY    46  44  92 W7        29.93S
ANN ARBOR      CLOUDY    55  50  83 MISG      29.94R
BAD AXE        CLOUDY    50  50 100 W10       29.90R FOG
CARO           CLOUDY    51  49  93 SW8       29.90R FOG
DETROIT CITY   CLOUDY    56  51  84 SW12      29.93R
DETROIT        CLOUDY    58  51  78 W12       29.95R
FLINT          CLOUDY    52  49  89 W10       29.92S
GROSSE ILE     CLOUDY    55  50  82 SW7       29.94R
HILLSDALE      CLOUDY    52  48  87 SW9       29.96R
HOWELL         CLOUDY    53  47  81 W12G17    29.93R

CITY           SKY/WX    TMP DP  RH WIND       PRES   REMARKS
JACKSON        CLOUDY    52  49  89 SW12      29.95R
LAMBERTVILLE   CLOUDY    56  49  77 W7        29.96S
LANSING        CLOUDY    50  44  80 W9        29.94R
LAPEER         CLOUDY    55  50  85 W8        29.91S
MASON          CLOUDY    52  50  91 W9        29.94R
MONROE         CLOUDY    55  51  89 SW13      29.95R
MT. CLEMENS    PTSUNNY   58  57  96 SW10      29.90S
PONTIAC        CLOUDY    55  49  80 SW10      29.91S
PORT HOPE        N/A     51  48  89 W12       29.86S
PORT HURON     CLOUDY    55  50  82 SW6       29.91S
TRI CITIES     CLOUDY    49  46  90 W14       29.92R
MIDLAND        CLOUDY    49  45  88 W8        29.91S
TROY           CLOUDY    56  50  82 SW5       29.94R
SAGINAW HB     CLOUDY    50  43  76 W12       29.91R
$$
MIZ043>046-050>051-056>058-064>065-071>073-077>080-271700-
SOUTHWEST LOWER MICHIGAN

CITY           SKY/WX    TMP DP  RH WIND       PRES   REMARKS
BATTLE CREEK   CLOUDY    50  48  93 W9        29.97R
BENTON HARBOR  CLOUDY    46  43  89 VRB3      29.95F
BIG RAPIDS     CLOUDY    39  38  97 W6        29.93F FOG     WCI  35
COLDWATER      CLOUDY    52  51  97 W6        29.96S FOG
FREMONT        CLOUDY    39  39  99 CALM      29.95S
HOLLAND        CLOUDY    43  39  86 W6        29.98R
GRAND RAPIDS   CLOUDY    44  42  93 W8        29.95R
IONIA          CLOUDY    45  42  88 W7        29.94R
KALAMAZOO      CLOUDY    49  45  86 W8        29.97R
LUDINGTON      CLOUDY    39  38  96 CALM      29.95S
MARSHALL       CLOUDY    51  51  98 W10       29.96R
MOUNT PLEASANT CLOUDY    43  43  98 W9        29.92S
MUSKEGON       CLOUDY    42  38  85 W3        29.96F
SOUTH HAVEN    CLOUDY    45  43  92 CALM      29.97S
$$
MIZ016>042-271700-
NORTHERN LOWER MICHIGAN

CITY           SKY/WX    TMP DP  RH WIND       PRES   REMARKS
ALPENA         CLOUDY    42  41  96 NW8       29.89R
BEAVER ISLAND  CLOUDY    37  36  98 N5        29.92F WCI  33
BELLAIRE       CLOUDY    37  35  96 NW5       29.94R WCI  33
CADILLAC       CLOUDY    38  37  97 W5        29.92R FOG     WCI  34
CHARLEVOIX     CLOUDY    36  36 100 N6        29.95S WCI  31
FRANKFORT      CLOUDY    37  35  92 N3        29.95R FOG
GAYLORD        CLOUDY    37  33  85 NW6       29.89R FOG     WCI  32
GRAYLING       CLOUDY    37  36  93 W7        29.92R WCI  32
HARBOR SPRINGS CLOUDY    36  36  99 N5        29.92R WCI  32
HOUGHTON LAKE  CLOUDY    39  38  96 W9        29.91R WCI  33
MANISTEE       CLOUDY    39  36  89 NW5       29.95R
OSCODA         CLOUDY    48  47  97 SW6       29.88R
PELLSTON       CLOUDY    37  34  89 NW7       29.92R WCI  32
ROGERS CITY    CLOUDY    37  36  94 NW8       29.91R WCI  31
TRAVERSE CITY  DRIZZLE   38  36  92 NW6       29.93S FOG     WCI  33
$$
MIZ007>008-015-271700-
EASTERN UPPER MICHIGAN

CITY           SKY/WX    TMP DP  RH WIND       PRES   REMARKS
KINROSS        CLOUDY    35  35 100 NW8       29.90R WCI  29
MACKINAC ISLAN CLOUDY    35  35 100 NW5       29.91R WCI  31
NEWBERRY       CLOUDY    35  34  96 NW8       29.91S WCI  28
S. S. MARIE    CLOUDY    37  35  92 W8        29.89R WCI  31
MUNISING         N/A     35  34  96 N13       29.93F WCI  26
$$
MIZ004>006-011>014-085-271700-
CENTRAL UPPER MICHIGAN

CITY           SKY/WX    TMP DP  RH WIND       PRES   REMARKS
MANISTIQUE     CLOUDY    37  36  93 N10       29.92F WCI  30
ESCANABA       CLOUDY    38  34  85 NW7       29.95R WCI  33
MENOMINEE        N/A    N/A N/A N/A MISG        N/A
SAWYER-GWINN   CLOUDY    34  32  93 N9        29.93S WCI  26
$$
MIZ001>003-009>011-084-271700-
WESTERN UPPER MICHIGAN

CITY           SKY/WX    TMP DP  RH WIND       PRES   REMARKS
IRON MOUNTAIN  CLOUDY    38  33  82 N8        29.92S WCI  32
HOUGHTON       CLOUDY    34  31  88 NW8       29.95R FOG     WCI  27
COPPER HARBOR    N/A     36  32  85 N13       29.95S WCI  27
IRONWOOD       CLOUDY    38  35  89 N5        29.97R WCI  34
$$

ABBREVIATIONS USED IN REMARKS
   TC - TEMPERATURE IN CELSIUS
  WCI - WIND CHILL INDEX
   HX - HEAT INDEX
  VSB - VISIBILITY





USA.gov is the U.S. government's official web portal to all federal, state and local government web resources and services.